| time (UTC) | temp F | wind direction | speed MPH | gust MPH | rain 1hr in | rain 24hr in | rain mn in | humidity % | barometer mb |
| 20260504173803 | 70 | 223 | 3.0 | 8.0 | 0.00 | 0.00 | 0.00 | 50 | 1010.5 |
| 20260504173303 | 70 | 235 | 2.0 | 10.0 | 0.00 | 0.00 | 0.00 | 48 | 1010.5 |
| 20260504172803 | 70 | 238 | 3.0 | 12.0 | 0.00 | 0.00 | 0.00 | 51 | 1010.7 |
| 20260504172304 | 70 | 286 | 1.0 | 5.0 | 0.00 | 0.00 | 0.00 | 52 | 1010.7 |
| 20260504171803 | 69 | 186 | 1.0 | 7.0 | 0.00 | 0.00 | 0.00 | 53 | 1010.7 |
| 20260504171303 | 69 | 236 | 1.0 | 10.0 | 0.00 | 0.00 | 0.00 | 52 | 1010.7 |
| 20260504170303 | 69 | 217 | 3.0 | 7.0 | 0.00 | 0.00 | 0.00 | 50 | 1010.9 |
| 20260504160302 | 67 | 229 | 1.0 | 8.0 | 0.00 | 0.00 | 0.00 | 52 | 1012.0 |
| 20260504150803 | 64 | 227 | 3.0 | 18.0 | 0.00 | 0.00 | 0.00 | 51 | 1012.7 |
| 20260504150304 | 65 | 223 | 2.0 | 18.0 | 0.00 | 0.00 | 0.00 | 52 | 1012.7 |
| 20260504141304 | 62 | 330 | 0.0 | 8.0 | 0.00 | 0.00 | 0.00 | 53 | 1012.7 |
| 20260504140803 | 62 | 319 | 1.0 | 3.0 | 0.00 | 0.00 | 0.00 | 55 | 1012.6 |
| 20260504140303 | 61 | 341 | 0.0 | 5.0 | 0.00 | 0.00 | 0.00 | 57 | 1012.8 |
| 20260504130804 | 53 | 231 | 0.0 | 0.0 | 0.00 | 0.00 | 0.00 | 66 | 1013.2 |
| 20260504130303 | 53 | 231 | 0.0 | 1.0 | 0.00 | 0.00 | 0.00 | 68 | 1013.3 |
| 20260504120303 | 48 | 30 | 1.0 | 3.0 | 0.00 | 0.00 | 0.00 | 82 | 1013.5 |
| 20260504110303 | 42 | 282 | 0.0 | 0.0 | 0.00 | 0.00 | 0.00 | 87 | 1013.4 |
| 20260504081802 | 41 | 282 | 0.0 | 0.0 | 0.00 | 0.00 | 0.00 | 79 | 1013.7 |
| 20260504080803 | 41 | 282 | 0.0 | 0.0 | 0.00 | 0.00 | 0.00 | 78 | 1013.7 |
| 20260504070303 | 43 | 282 | 0.0 | 0.0 | 0.00 | 0.00 | 0.00 | 74 | 1013.5 |
| 20260504050304 | 45 | 282 | 0.0 | 0.0 | 0.00 | 0.00 | 0.00 | 70 | 1013.7 |
| 20260504045804 | 45 | 282 | 0.0 | 0.0 | 0.00 | 0.00 | 0.00 | 70 | 1013.8 |
| 20260504045304 | 46 | 282 | 0.0 | 0.0 | 0.00 | 0.00 | 0.00 | 70 | 1013.8 |
| 20260504044802 | 46 | 282 | 0.0 | 0.0 | 0.00 | 0.00 | 0.00 | 68 | 1013.7 |
| 20260504044304 | 46 | 282 | 0.0 | 0.0 | 0.00 | 0.00 | 0.00 | 68 | 1013.7 |
| 20260504043802 | 46 | 282 | 0.0 | 0.0 | 0.00 | 0.00 | 0.00 | 68 | 1013.8 |
| 20260504043303 | 46 | 282 | 0.0 | 0.0 | 0.00 | 0.00 | 0.00 | 68 | 1013.7 |
| 20260504042803 | 46 | 282 | 0.0 | 0.0 | 0.00 | 0.00 | 0.00 | 69 | 1013.7 |
| 20260504042304 | 46 | 282 | 0.0 | 0.0 | 0.00 | 0.00 | 0.00 | 69 | 1013.7 |
| 20260504041803 | 46 | 282 | 0.0 | 0.0 | 0.00 | 0.00 | 0.00 | 68 | 1013.7 |
| 20260504041303 | 46 | 282 | 0.0 | 0.0 | 0.00 | 0.00 | 0.00 | 68 | 1013.7 |
| 20260504040303 | 46 | 282 | 0.0 | 0.0 | 0.00 | 0.00 | 0.00 | 68 | 1013.6 |
| 20260504035803 | 46 | 282 | 0.0 | 0.0 | 0.00 | 0.00 | 0.00 | 68 | 1013.5 |
| 20260504035304 | 46 | 282 | 0.0 | 0.0 | 0.00 | 0.00 | 0.00 | 69 | 1013.4 |
| 20260504034803 | 46 | 282 | 0.0 | 0.0 | 0.00 | 0.00 | 0.00 | 68 | 1013.3 |
| 20260504033804 | 46 | 282 | 0.0 | 0.0 | 0.00 | 0.00 | 0.00 | 67 | 1013.2 |
| 20260504032803 | 47 | 282 | 0.0 | 0.0 | 0.00 | 0.00 | 0.00 | 66 | 1013.1 |
| 20260504032304 | 47 | 282 | 0.0 | 0.0 | 0.00 | 0.00 | 0.00 | 66 | 1013.1 |
| 20260504031303 | 47 | 282 | 0.0 | 0.0 | 0.00 | 0.00 | 0.00 | 65 | 1013.0 |
| 20260504030803 | 47 | 282 | 0.0 | 0.0 | 0.00 | 0.00 | 0.00 | 65 | 1013.0 |
| 20260504030303 | 47 | 282 | 0.0 | 0.0 | 0.00 | 0.00 | 0.00 | 64 | 1013.0 |
| 20260504025803 | 48 | 282 | 0.0 | 0.0 | 0.00 | 0.00 | 0.00 | 64 | 1013.0 |
| 20260504025304 | 48 | 282 | 0.0 | 0.0 | 0.00 | 0.00 | 0.00 | 64 | 1013.0 |
| 20260504024303 | 48 | 282 | 0.0 | 0.0 | 0.00 | 0.00 | 0.00 | 64 | 1013.1 |
| 20260504023803 | 48 | 282 | 0.0 | 0.0 | 0.00 | 0.00 | 0.00 | 63 | 1013.1 |
| 20260504022304 | 49 | 282 | 0.0 | 0.0 | 0.00 | 0.00 | 0.00 | 62 | 1013.1 |
| 20260504021803 | 49 | 282 | 0.0 | 0.0 | 0.00 | 0.00 | 0.00 | 63 | 1013.1 |
| 20260504021303 | 49 | 282 | 0.0 | 0.0 | 0.00 | 0.00 | 0.00 | 62 | 1013.2 |
| 20260504020303 | 49 | 282 | 0.0 | 0.0 | 0.00 | 0.00 | 0.00 | 62 | 1013.1 |
| 20260504015803 | 49 | 282 | 0.0 | 0.0 | 0.00 | 0.00 | 0.00 | 62 | 1013.1 |
| 20260504015304 | 49 | 282 | 0.0 | 0.0 | 0.00 | 0.00 | 0.00 | 62 | 1013.1 |
| 20260504014804 | 49 | 282 | 0.0 | 0.0 | 0.00 | 0.00 | 0.00 | 61 | 1013.0 |
| 20260504014303 | 49 | 282 | 0.0 | 0.0 | 0.00 | 0.00 | 0.00 | 61 | 1013.0 |
| 20260504013803 | 50 | 282 | 0.0 | 0.0 | 0.00 | 0.00 | 0.00 | 60 | 1013.0 |
| 20260504013303 | 50 | 282 | 0.0 | 0.0 | 0.00 | 0.00 | 0.00 | 60 | 1013.0 |
| 20260504012803 | 50 | 282 | 0.0 | 0.0 | 0.00 | 0.00 | 0.00 | 60 | 1013.0 |
| 20260504012304 | 50 | 282 | 0.0 | 0.0 | 0.00 | 0.00 | 0.00 | 59 | 1012.9 |
| 20260504011805 | 51 | 282 | 0.0 | 0.0 | 0.00 | 0.00 | 0.00 | 59 | 1012.9 |
| 20260504011304 | 51 | 282 | 0.0 | 0.0 | 0.00 | 0.00 | 0.00 | 58 | 1012.9 |
| 20260504010820 | 51 | 282 | 0.0 | 0.0 | 0.00 | 0.00 | 0.00 | 58 | 1012.9 |
| 20260504010303 | 51 | 282 | 0.0 | 0.0 | 0.00 | 0.00 | 0.00 | 58 | 1012.9 |
| 20260504005803 | 52 | 282 | 0.0 | 0.0 | 0.00 | 0.00 | 0.00 | 57 | 1012.9 |
| 20260504005304 | 52 | 282 | 0.0 | 0.0 | 0.00 | 0.00 | 0.00 | 57 | 1012.8 |
| 20260504004803 | 52 | 282 | 0.0 | 0.0 | 0.00 | 0.00 | 0.00 | 56 | 1012.8 |
| 20260504003303 | 54 | 282 | 0.0 | 0.0 | 0.00 | 0.00 | 0.00 | 54 | 1012.6 |
| 20260504002803 | 54 | 282 | 0.0 | 0.0 | 0.00 | 0.00 | 0.00 | 53 | 1012.5 |
| 20260504001803 | 55 | 282 | 0.0 | 0.0 | 0.00 | 0.00 | 0.00 | 52 | 1012.4 |
| 20260504001303 | 55 | 282 | 0.0 | 0.0 | 0.00 | 0.00 | 0.00 | 52 | 1012.4 |
| 20260504000803 | 55 | 282 | 0.0 | 0.0 | 0.00 | 0.00 | 0.00 | 51 | 1012.3 |
| 20260504000303 | 56 | 282 | 0.0 | 0.0 | 0.00 | 0.00 | 0.00 | 50 | 1012.2 |
| 20260503235304 | 56 | 340 | 0.0 | 5.0 | 0.00 | 0.00 | 0.00 | 51 | 1012.3 |
| 20260503234804 | 57 | 22 | 0.0 | 0.0 | 0.00 | 0.00 | 0.00 | 50 | 1012.2 |
| 20260503234303 | 57 | 22 | 0.0 | 0.0 | 0.00 | 0.00 | 0.00 | 50 | 1012.1 |
| 20260503233303 | 57 | 305 | 0.0 | 2.0 | 0.00 | 0.00 | 0.00 | 49 | 1012.0 |
| 20260503231803 | 58 | 306 | 0.0 | 0.0 | 0.00 | 0.00 | 0.00 | 49 | 1011.9 |
| 20260503230803 | 58 | 308 | 2.0 | 9.0 | 0.00 | 0.00 | 0.00 | 48 | 1011.9 |
| 20260503230303 | 58 | 312 | 0.0 | 3.0 | 0.00 | 0.00 | 0.00 | 48 | 1011.9 |
| 20260503225802 | 58 | 312 | 0.0 | 7.0 | 0.00 | 0.00 | 0.00 | 48 | 1011.8 |
| 20260503225305 | 59 | 292 | 1.0 | 3.0 | 0.00 | 0.00 | 0.00 | 48 | 1011.8 |
| 20260503224803 | 59 | 238 | 2.0 | 8.0 | 0.00 | 0.00 | 0.00 | 46 | 1011.7 |
| 20260503224303 | 59 | 232 | 2.0 | 9.0 | 0.00 | 0.00 | 0.00 | 47 | 1011.8 |
| 20260503223303 | 59 | 240 | 0.0 | 7.0 | 0.00 | 0.00 | 0.00 | 48 | 1011.8 |
| 20260503222304 | 59 | 281 | 0.0 | 5.0 | 0.00 | 0.00 | 0.00 | 47 | 1011.8 |
| 20260503221803 | 59 | 294 | 2.0 | 12.0 | 0.00 | 0.00 | 0.00 | 47 | 1011.8 |
| 20260503221304 | 59 | 300 | 1.0 | 6.0 | 0.00 | 0.00 | 0.00 | 47 | 1011.9 |
| 20260503220803 | 59 | 316 | 2.0 | 8.0 | 0.00 | 0.00 | 0.00 | 47 | 1012.0 |
| 20260503220303 | 60 | 320 | 1.0 | 7.0 | 0.00 | 0.00 | 0.00 | 47 | 1012.0 |
| 20260503215804 | 60 | 306 | 1.0 | 8.0 | 0.00 | 0.00 | 0.00 | 46 | 1012.0 |
| 20260503215304 | 60 | 334 | 2.0 | 7.0 | 0.00 | 0.00 | 0.00 | 45 | 1011.9 |
| 20260503214803 | 60 | 313 | 2.0 | 6.0 | 0.00 | 0.00 | 0.00 | 46 | 1011.9 |
| 20260503213803 | 60 | 287 | 1.0 | 14.0 | 0.00 | 0.00 | 0.00 | 47 | 1011.6 |
| 20260503213303 | 60 | 289 | 2.0 | 13.0 | 0.00 | 0.00 | 0.00 | 47 | 1011.6 |
| 20260503212803 | 60 | 300 | 2.0 | 10.0 | 0.00 | 0.00 | 0.00 | 47 | 1011.5 |
| 20260503211803 | 60 | 270 | 1.0 | 9.0 | 0.00 | 0.00 | 0.00 | 47 | 1011.4 |
| 20260503210803 | 60 | 297 | 3.0 | 10.0 | 0.00 | 0.00 | 0.00 | 46 | 1011.5 |
| 20260503210303 | 60 | 309 | 1.0 | 12.0 | 0.00 | 0.00 | 0.00 | 48 | 1011.5 |
| 20260503205803 | 60 | 196 | 0.0 | 6.0 | 0.00 | 0.00 | 0.00 | 47 | 1011.5 |
| 20260503205304 | 60 | 285 | 1.0 | 12.0 | 0.00 | 0.00 | 0.00 | 48 | 1011.2 |
| 20260503204803 | 60 | 312 | 2.0 | 8.0 | 0.00 | 0.00 | 0.00 | 46 | 1011.5 |
| 20260503204303 | 59 | 291 | 2.0 | 9.0 | 0.00 | 0.00 | 0.00 | 47 | 1011.6 |
| 20260503203803 | 59 | 13 | 1.0 | 8.0 | 0.00 | 0.00 | 0.00 | 48 | 1011.5 |
| 20260503203303 | 59 | 263 | 1.0 | 7.0 | 0.00 | 0.00 | 0.00 | 47 | 1011.6 |
| 20260503202803 | 58 | 269 | 2.0 | 8.0 | 0.00 | 0.00 | 0.00 | 49 | 1011.7 |
| 20260503202304 | 58 | 340 | 2.0 | 10.0 | 0.00 | 0.00 | 0.00 | 48 | 1011.7 |
| 20260503201803 | 58 | 319 | 2.0 | 10.0 | 0.00 | 0.00 | 0.00 | 46 | 1011.7 |
| 20260503201304 | 58 | 293 | 2.0 | 7.0 | 0.00 | 0.00 | 0.00 | 47 | 1012.0 |
| 20260503200304 | 59 | 287 | 3.0 | 8.0 | 0.00 | 0.00 | 0.00 | 46 | 1012.1 |
| 20260503195803 | 59 | 319 | 2.0 | 8.0 | 0.00 | 0.00 | 0.00 | 47 | 1012.0 |
| 20260503195304 | 58 | 244 | 3.0 | 10.0 | 0.00 | 0.00 | 0.00 | 48 | 1012.0 |
| 20260503194803 | 57 | 317 | 2.0 | 9.0 | 0.00 | 0.00 | 0.00 | 47 | 1012.1 |
| 20260503194303 | 57 | 310 | 4.0 | 16.0 | 0.00 | 0.00 | 0.00 | 48 | 1012.3 |
| 20260503193803 | 58 | 288 | 3.0 | 10.0 | 0.00 | 0.00 | 0.00 | 46 | 1012.2 |
| 20260503193303 | 57 | 269 | 1.0 | 16.0 | 0.00 | 0.00 | 0.00 | 48 | 1012.3 |
| 20260503192803 | 57 | 293 | 2.0 | 7.0 | 0.00 | 0.00 | 0.00 | 49 | 1012.2 |
| 20260503192305 | 57 | 329 | 6.0 | 12.0 | 0.00 | 0.00 | 0.00 | 47 | 1012.3 |
| 20260503191803 | 56 | 353 | 2.0 | 8.0 | 0.00 | 0.00 | 0.00 | 47 | 1012.4 |
| 20260503191304 | 56 | 314 | 4.0 | 10.0 | 0.00 | 0.00 | 0.00 | 47 | 1012.7 |
| 20260503190804 | 56 | 335 | 3.0 | 8.0 | 0.00 | 0.00 | 0.00 | 48 | 1012.7 |
| 20260503185804 | 56 | 281 | 6.0 | 18.0 | 0.00 | 0.00 | 0.00 | 49 | 1012.6 |
| 20260503185304 | 56 | 340 | 2.0 | 10.0 | 0.00 | 0.00 | 0.00 | 47 | 1012.9 |
| 20260503184804 | 56 | 310 | 3.0 | 9.0 | 0.00 | 0.00 | 0.00 | 48 | 1012.9 |
| 20260503184304 | 56 | 240 | 1.0 | 7.0 | 0.00 | 0.00 | 0.00 | 49 | 1012.9 |
| 20260503183804 | 56 | 317 | 5.0 | 14.0 | 0.00 | 0.00 | 0.00 | 48 | 1013.0 |
| 20260503183303 | 56 | 313 | 1.0 | 10.0 | 0.00 | 0.00 | 0.00 | 52 | 1012.9 |
| 20260503182803 | 57 | 210 | 1.0 | 5.0 | 0.00 | 0.00 | 0.00 | 49 | 1013.1 |
| 20260503181803 | 55 | 298 | 3.0 | 8.0 | 0.00 | 0.00 | 0.00 | 51 | 1013.2 |
| 20260503181303 | 54 | 270 | 2.0 | 8.0 | 0.00 | 0.00 | 0.00 | 51 | 1013.2 |
| 20260503180303 | 53 | 309 | 3.0 | 12.0 | 0.00 | 0.00 | 0.00 | 52 | 1013.2 |
| 20260503175803 | 53 | 0 | 3.0 | 8.0 | 0.00 | 0.00 | 0.00 | 51 | 1013.2 |
| 20260503174803 | 54 | 340 | 3.0 | 12.0 | 0.00 | 0.00 | 0.00 | 50 | 1013.4 |